Previsão horária em Abakumy

Hoje, 25 Janeiro, Segunda-feira

Tempo Temperatura Precipitação Vento Pressão Humidade
00:00 +2°C° 0.3 mm 5 m/s 742 mmHg 95%
01:00 +2°C° 0.3 mm 5 m/s 742 mmHg 96%
02:00 +3°C° 0 mm 4 m/s 742 mmHg 97%
03:00 +1°C° 0 mm 4 m/s 742 mmHg 97%
04:00 +1°C° 0 mm 4 m/s 742 mmHg 97%
05:00 +1°C° 0 mm 4 m/s 742 mmHg 97%
06:00 +2°C° 0 mm 3 m/s 742 mmHg 98%
07:00 +2°C° 0 mm 3 m/s 742 mmHg 98%
08:00 +1°C° 0 mm 3 m/s 742 mmHg 97%
09:00 +1°C° 0 mm 4 m/s 742 mmHg 97%
10:00 +1°C° 0 mm 4 m/s 742 mmHg 96%
11:00 +3°C° 0 mm 4 m/s 742 mmHg 96%
12:00 +2°C° 0 mm 5 m/s 741 mmHg 96%
13:00 +2°C° 0 mm 5 m/s 741 mmHg 95%
14:00 +2°C° 0 mm 5 m/s 740 mmHg 93%
15:00 +2°C° 0 mm 6 m/s 740 mmHg 93%
16:00 +2°C° 0 mm 6 m/s 740 mmHg 92%
17:00 +2°C° 0 mm 7 m/s 739 mmHg 92%
18:00 +3°C° 0.6 mm 7 m/s 739 mmHg 92%
19:00 +2°C° 0.6 mm 8 m/s 738 mmHg 92%
20:00 +2°C° 0.6 mm 8 m/s 737 mmHg 91%
21:00 +4°C° 0.6 mm 8 m/s 737 mmHg 91%
22:00 +4°C° 0.6 mm 8 m/s 737 mmHg 91%
23:00 +4°C° 0.6 mm 8 m/s 736 mmHg 91%

Amanhã, 26 Janeiro, Terça-feira

Tempo Temperatura Precipitação Vento Pressão Humidade
00:00 +4°C° 0.6 mm 8 m/s 735 mmHg 91%
01:00 +2°C° 0.6 mm 8 m/s 734 mmHg 91%
02:00 +2°C° 0.6 mm 8 m/s 734 mmHg 90%
03:00 +2°C° 0.5 mm 8 m/s 733 mmHg 90%
04:00 +2°C° 0.5 mm 8 m/s 733 mmHg 90%
05:00 +2°C° 0.5 mm 8 m/s 732 mmHg 90%
06:00 +1°C° 0.4 mm 8 m/s 732 mmHg 92%
07:00 +1°C° 0.4 mm 8 m/s 732 mmHg 93%
08:00 0°C° 0.4 mm 8 m/s 732 mmHg 95%
09:00 -1°C° 0.3 mm 8 m/s 732 mmHg 95%
10:00 -2°C° 0.3 mm 8 m/s 733 mmHg 95%
11:00 -3°C° 0.3 mm 9 m/s 734 mmHg 96%
12:00 -3°C° 0.2 mm 9 m/s 734 mmHg 95%
13:00 -3°C° 0.2 mm 9 m/s 735 mmHg 94%
14:00 -3°C° 0.2 mm 10 m/s 735 mmHg 93%
15:00 -3°C° 0.2 mm 10 m/s 736 mmHg 90%
16:00 -3°C° 0.2 mm 10 m/s 736 mmHg 87%
17:00 -3°C° 0.2 mm 10 m/s 737 mmHg 85%
18:00 -3°C° 0.2 mm 10 m/s 737 mmHg 85%
19:00 -4°C° 0.2 mm 10 m/s 738 mmHg 86%
20:00 -4°C° 0.2 mm 10 m/s 738 mmHg 86%
21:00 -4°C° 0.1 mm 10 m/s 739 mmHg 85%
22:00 -4°C° 0.1 mm 9 m/s 739 mmHg 84%
23:00 -4°C° 0.1 mm 9 m/s 740 mmHg 82%

Depois de amanhã, 27 Janeiro, Quarta-feira

Tempo Temperatura Precipitação Vento Pressão Humidade
00:00 -4°C° 0 mm 9 m/s 741 mmHg 82%
01:00 -4°C° 0 mm 8 m/s 742 mmHg 81%
02:00 -3°C° 0 mm 7 m/s 742 mmHg 81%
03:00 -3°C° 0 mm 7 m/s 743 mmHg 81%
04:00 -3°C° 0 mm 6 m/s 743 mmHg 81%
05:00 -3°C° 0 mm 6 m/s 744 mmHg 82%
06:00 -4°C° 0 mm 5 m/s 744 mmHg 83%
07:00 -3°C° 0 mm 4 m/s 745 mmHg 84%
08:00 -2°C° 0 mm 3 m/s 745 mmHg 86%
09:00 -2°C° 0 mm 3 m/s 745 mmHg 85%
10:00 -1°C° 0 mm 3 m/s 746 mmHg 83%
11:00 -1°C° 0 mm 3 m/s 746 mmHg 82%
12:00 -1°C° 0 mm 3 m/s 746 mmHg 82%
13:00 -1°C° 0 mm 2 m/s 746 mmHg 82%
14:00 -1°C° 0 mm 2 m/s 746 mmHg 82%
15:00 -1°C° 0 mm 2 m/s 746 mmHg 84%
16:00 0°C° 0 mm 1 m/s 746 mmHg 86%
17:00 0°C° 0 mm 1 m/s 746 mmHg 89%
18:00 0°C° 0 mm 1 m/s 746 mmHg 89%
19:00 -2°C° 0 mm 2 m/s 745 mmHg 89%
20:00 -2°C° 0 mm 2 m/s 745 mmHg 89%
21:00 -2°C° 0 mm 2 m/s 745 mmHg 89%
22:00 -2°C° 0 mm 2 m/s 745 mmHg 88%
23:00 -2°C° 0 mm 3 m/s 744 mmHg 88%

28 Janeiro, Quinta-feira

Tempo Temperatura Precipitação Vento Pressão Humidade
00:00 -2°C° 0.2 mm 3 m/s 744 mmHg 90%
01:00 -2°C° 0.2 mm 3 m/s 743 mmHg 92%
02:00 -3°C° 0.2 mm 4 m/s 743 mmHg 94%
03:00 -3°C° 0.8 mm 4 m/s 742 mmHg 94%
04:00 -3°C° 0.8 mm 4 m/s 742 mmHg 95%
05:00 -4°C° 0.8 mm 5 m/s 742 mmHg 96%
06:00 -4°C° 0.6 mm 5 m/s 741 mmHg 96%
07:00 -3°C° 0.6 mm 4 m/s 741 mmHg 96%
08:00 -3°C° 0.6 mm 4 m/s 741 mmHg 96%
09:00 -3°C° 0.3 mm 4 m/s 741 mmHg 96%
10:00 -3°C° 0.3 mm 4 m/s 741 mmHg 96%
11:00 -1°C° 0.3 mm 3 m/s 740 mmHg 96%
12:00 -1°C° 0.3 mm 3 m/s 740 mmHg 96%
13:00 -1°C° 0.3 mm 3 m/s 740 mmHg 97%
14:00 -1°C° 0.3 mm 3 m/s 739 mmHg 97%
15:00 -1°C° 0.3 mm 3 m/s 739 mmHg 97%
16:00 -1°C° 0.3 mm 3 m/s 739 mmHg 97%
17:00 -1°C° 0.3 mm 3 m/s 739 mmHg 97%
18:00 -1°C° 0.3 mm 3 m/s 739 mmHg 97%
19:00 -1°C° 0.3 mm 2 m/s 739 mmHg 98%
20:00 -1°C° 0.3 mm 2 m/s 739 mmHg 98%
21:00 -1°C° 0.3 mm 2 m/s 739 mmHg 98%
22:00 -1°C° 0.3 mm 2 m/s 740 mmHg 98%
23:00 -2°C° 0.3 mm 2 m/s 740 mmHg 98%

29 Janeiro, Sexta-feira

Tempo Temperatura Precipitação Vento Pressão Humidade
00:00 -2°C° 0.2 mm 2 m/s 740 mmHg 97%
01:00 -2°C° 0.2 mm 2 m/s 740 mmHg 97%
02:00 -3°C° 0.2 mm 2 m/s 740 mmHg 97%
03:00 -3°C° 0.1 mm 2 m/s 740 mmHg 97%
04:00 -4°C° 0.1 mm 2 m/s 740 mmHg 96%
05:00 -5°C° 0.1 mm 2 m/s 740 mmHg 96%
06:00 -5°C° 0.1 mm 2 m/s 740 mmHg 96%
07:00 -5°C° 0.1 mm 2 m/s 740 mmHg 95%
08:00 -5°C° 0.1 mm 2 m/s 740 mmHg 95%
09:00 -5°C° 0 mm 2 m/s 740 mmHg 93%
10:00 -5°C° 0 mm 3 m/s 740 mmHg 90%
11:00 -5°C° 0 mm 3 m/s 740 mmHg 88%
12:00 -5°C° 0 mm 3 m/s 740 mmHg 88%
13:00 -5°C° 0 mm 3 m/s 740 mmHg 87%
14:00 -5°C° 0 mm 3 m/s 739 mmHg 86%
15:00 -5°C° 0 mm 2 m/s 740 mmHg 88%
16:00 -6°C° 0 mm 2 m/s 740 mmHg 90%
17:00 -7°C° 0 mm 2 m/s 740 mmHg 92%
18:00 -7°C° 0 mm 2 m/s 740 mmHg 93%
19:00 -7°C° 0 mm 2 m/s 740 mmHg 93%
20:00 -8°C° 0 mm 2 m/s 740 mmHg 93%
21:00 -8°C° 0 mm 2 m/s 740 mmHg 94%
22:00 -8°C° 0 mm 2 m/s 740 mmHg 94%
23:00 -8°C° 0 mm 2 m/s 740 mmHg 94%

30 Janeiro, Sábado

Tempo Temperatura Precipitação Vento Pressão Humidade
00:00 -8°C° 0 mm 2 m/s 740 mmHg 94%
01:00 -8°C° 0 mm 2 m/s 740 mmHg 93%
02:00 -9°C° 0 mm 2 m/s 740 mmHg 93%
03:00 -8°C° 0 mm 2 m/s 739 mmHg 93%
04:00 -8°C° 0 mm 2 m/s 739 mmHg 92%
05:00 -8°C° 0 mm 2 m/s 739 mmHg 92%
06:00 -8°C° 0 mm 2 m/s 739 mmHg 92%
07:00 -7°C° 0 mm 2 m/s 739 mmHg 92%
08:00 -7°C° 0 mm 2 m/s 738 mmHg 92%
09:00 -6°C° 0.1 mm 2 m/s 738 mmHg 92%
10:00 -6°C° 0.1 mm 3 m/s 738 mmHg 92%
11:00 -5°C° 0.1 mm 3 m/s 738 mmHg 93%
12:00 -4°C° 0.2 mm 3 m/s 737 mmHg 93%
13:00 -4°C° 0.2 mm 3 m/s 737 mmHg 94%
14:00 -2°C° 0.2 mm 3 m/s 737 mmHg 94%
15:00 -2°C° 0.3 mm 3 m/s 736 mmHg 95%
16:00 -4°C° 0.3 mm 3 m/s 736 mmHg 96%
17:00 -4°C° 0.3 mm 4 m/s 735 mmHg 96%
18:00 -4°C° 0.4 mm 4 m/s 735 mmHg 96%
19:00 -4°C° 0.4 mm 4 m/s 734 mmHg 96%
20:00 -4°C° 0.4 mm 4 m/s 734 mmHg 96%
21:00 -4°C° 1.1 mm 4 m/s 733 mmHg 96%
22:00 -4°C° 1.1 mm 4 m/s 733 mmHg 97%
23:00 -3°C° 1.1 mm 4 m/s 733 mmHg 97%
Mostrar mais